Flag Weather past 2 weeks in Eucla, Western Australia, Australia

Now
62 °F

Mild.


Feels Like: 62 °F
Forecast: 60 / 69 °F
Wind: 9 mph from Northeast

Location: Eucla Amo

Current Time: Oct 31, 2014 at 2:44:35 AM

Latest Report: Oct 31, 2014 at 12:45 AM


Visibility: N/A

Pressure: 29.71 "Hg

Humidity: 92%

Dew point: 60 °F

Location of EuclaLocation

Historic Weather in Eucla — Graph

°F

Eucla temperature yesterday

Maximum temperature yesterday: 88 °F (at 2:45 PM)
Minimum temperature yesterday: 64 °F (at 9:45 PM)
Average temperature yesterday: 73 °F

Past Weeks' High & Low Weather Summary

 TemperatureHumidityPressure
High101 °F (Oct 17, 12:45 PM)97% (Oct 22, 2:45 AM)30.24 "Hg (Oct 22, 2:45 AM)
Low45 °F (Oct 28, 3:45 AM)5% (Oct 17, 11:45 AM)29.71 "Hg (Oct 31, 12:45 AM)
Average66 °F67%30.02 "Hg
* Reported Oct 16 12:45 AM — Oct 31 12:45 AM, Eucla, Weather by CustomWeather, © 2014

Note: Actual official high and low records may vary slightly from our data, if they occured in-between our weather recording intervals... More about our weather records

Advertising

Eucla weather history for previous 24 hours

 ConditionsComfort  
Time TempWeatherWind HumidityBarometerVisibility
12:45 AM
Oct 31
62 °FMild.9 mph92%29.71 "HgN/A
11:45 PM
Oct 30
64 °FMild.9 mph85%29.73 "HgN/A
9:45 PM64 °FMild.12 mph91%29.83 "HgN/A
8:45 PM64 °FMild.5 mph86%29.78 "HgN/A
6:45 PM66 °FMild.10 mph85%29.73 "HgN/A
5:45 PM75 °FMild.6 mph46%29.77 "HgN/A
3:45 PM83 °FThunderstorms. Partly sunny.9 mph28%29.76 "Hg25 mi
2:45 PM88 °FPleasantly warm.9 mph26%29.77 "HgN/A
12:45 PM87 °FPleasantly warm.6 mph25%29.82 "HgN/A
11:45 AM86 °FPleasantly warm.9 mph20%29.83 "HgN/A
9:45 AM82 °FOvercast.17 mph20%29.87 "Hg25 mi
8:45 AM76 °FMild.17 mph25%29.87 "HgN/A
6:45 AM68 °FMild.15 mph36%29.88 "HgN/A
5:45 AM65 °FMild.15 mph40%29.88 "HgN/A
3:45 AM65 °FMild.15 mph45%29.87 "HgN/A
2:45 AM65 °FMild.16 mph46%29.88 "HgN/A
Weather by CustomWeather, © 2014

See weather overviewHow to use our weather pages